EHI
0 0 0 0 0 0 0 0 0 0 0 0 0 0 0 0 0 0 0 0 0 0 0 0 0 0 0 0 0 0 0 0 0 0 0 0 0 0
0 0 0 0 0 0 0 0 0 0 0 0 0 0 0 0 0 0 0 0 0 0 0 0 0 0 0 0 0 0 0 0 0 0 0 0 0 0
0 0 0 0 0 0 0 0 0 0 0 0 0 0 0 0 0 0 0 0 0 0 0 0 0 0 0 0 0 0 0 0 0 0 0 0 0 0
0 0 0 0 0 0 0 0 0 0 0 0 0 0 0 0 0 0 0 0 0 0 0 0 0 0 0 0 0 0 0 0 0 0 0 0 0 0
0 0 0 0 0 0 0 0 0 0 0 0 0 0 0 0 0 0 0 0 0 0 0 0 0 0 0 0 0 0 0 0 0 0 0 0 0 0
0 0 0 0 0 0 0 0 0 0 0 0 0 0 0 0 0 0 0 0 0 0 0 0 0 0 0 0 0 0 0 0 0 0 0 0 0 0
0 0 0 0 0 0 0 0 0 0 0 0 0 0 0 0 0 0 0 0 0 0 0 0 0 0 0 0 0 0 0 0 0 0 0 0 0 0
0 0 0 0 0 0 0 0 0 0 0 0 0 0 0 0 0 0 0 0 0 0 0 0 0 0 0 0 0 0 0 0 0 0 0 0 0 0
0 0 0 0 0 0 0 0 0 0 0 0 0 0 0 0 0 0 0 0 0 0 0 0 0 0 0 0 0 0 0 0 0 0 0 0 0 0
0 0 0 0 0 0 0 0 0 0 0 0 0 0 0 0 0 0 0 0 0 0 0 0 0 0 0 0 0 0 0 0 0 0 0 0 0 0
0 0 0 0 0 0 0 0 0 0 0 0 0 0 0 0 0 0 0 0 0 0 0 0 0 0 0 0 0 0 0 0 0 0 0 0 0 0
0 0 0 0 0 0 0 0 0 0 0 0 0 0 0 0 0 0 0 0 0 0 0 0 0 0 0 0 0 0 0 0 0 0 0 0 0 0
0 0 0 0 0 0 0 0 0 0 0 0 0 0 0 0 0 0 0 0 0 0 0 0 0 0 0 0 0 0 0 0 0 0 0 0 0 0
0 0 0 0 0 0 0 0 0 0 0 0 0 0 0 0 0 0 0 0 0 0 0 0 0 0 0 0 0 0 0 0 0 0 0 0 0 0
0 0 0 0 0 0 0 0 0 0 0 0 0 0 0 0 0 0 0 0 0 0 0 0 0 0 0 0 0 0 0 0 0 0 0 0 0 0
0 0 0 0 0 0 0 0 0 0 0 0 0 0 0 0 0 0 0 0 0 0 0 0 0 0 0 0 0 0 0 0 0 0 0 0 0 0
0 0 0 0 0 0 0 0 0 0 0 0 0 0 0 0 0 0 0 0 0 0 0 0 0 0 0 0 0 0 0 0 0 0 0 0 0 0
0 0 0 0 0 0 0 0 0 0 0 0 0 0 0 0 0 0 0 0 0 0 0 0 0 0 0 0 0 0 0 0 0 0 0 0 0 0
0 0 0 0 0 0 0 0 0 0 0 0 0 0 0 0 0 0 0 0 0 0 0 0 0 0 0 0 0 0 0 0 0 0 0 0 0 0
0 0 0 0 0 0 0 0 0 0 0 0 0 0 0 0 0 0 0 0 0 0 0 0 0 0 0 0 0 0 0 0 0 0 0 0 0 0
0 0 0 0 0 0 0 0 0 0 0 0 0 0 0 0 0 0 0 0 0 0 0 0 0 0 0 0 0 0 0 0 0 0 0 0 0 0
0 0 0 0 0 0 0 0 0 0 0 0 0 0 0 0 0 0 0 0 0 0 0 0 0 0 0 0 0 0 0 0 0 0 0 0 0 0
0 0 0 0 0 0 0 0 0 0 0 0 0 0 0 0 0 0 0 0 0 0 0 0 0 0 0 0 0 0 0 0 0 0 0 0 0 0
Wind_Speed
5 5 4 3 3 2 3 4 5 4 1 1 1 1 1 1 3 2 2 4 4 3 3 2 1 1 2 2 3 4 5 6 7 7 8 8 8 8
5 6 5 3 3 3 3 2 3 4 3 1 1 2 2 2 3 2 3 5 6 5 5 4 3 2 1 1 2 3 4 5 6 7 7 8 8 8
6 7 6 5 4 4 3 3 3 3 4 1 0 1 1 1 0 1 1 2 2 6 6 5 4 4 3 2 0 1 2 4 5 6 7 7 7 8
6 7 6 6 6 5 4 4 3 3 4 3 1 1 0 1 0 0 0 1 2 5 7 6 5 5 4 3 2 2 2 3 4 5 6 6 7 7
6 7 6 7 6 5 5 4 3 3 3 4 2 1 1 1 2 2 2 1 1 2 4 6 6 6 6 5 4 3 3 3 3 4 5 6 6 7
6 6 5 6 5 5 5 4 4 5 4 4 3 2 1 1 2 2 2 2 1 0 1 2 4 6 7 7 6 6 5 4 4 4 4 5 6 6
5 5 5 7 7 5 4 4 4 4 4 4 3 2 2 2 1 1 1 2 2 1 0 1 1 1 3 5 7 7 6 5 4 4 4 5 5 6
4 4 5 7 8 8 7 5 5 4 4 3 2 2 1 1 1 1 1 2 2 2 0 1 0 2 3 3 6 8 7 7 6 5 5 5 5 6
3 3 4 5 6 5 6 7 6 5 4 4 3 1 1 1 0 1 1 0 2 2 1 1 1 2 3 4 7 8 8 8 7 7 6 6 6 6
4 4 4 4 4 4 5 5 5 4 2 2 2 2 2 2 2 2 1 1 2 1 1 0 1 2 2 2 5 6 8 8 8 8 8 7 7 7
4 4 3 3 5 7 6 5 5 4 4 2 1 3 4 4 3 1 1 2 1 2 0 1 1 1 2 3 3 5 7 8 8 9 9 8 8 7
3 3 4 4 5 6 4 3 3 3 4 5 4 4 2 2 3 3 2 2 1 2 2 1 1 0 2 3 2 2 3 6 8 9 9 10 9 4
2 2 2 4 5 5 3 1 1 2 2 3 2 3 2 2 1 2 3 3 3 3 3 2 1 1 1 2 3 3 2 2 2 4 6 9 9 6
1 1 2 4 5 5 3 3 3 3 2 2 2 2 2 2 2 3 3 4 5 6 4 3 3 3 2 1 3 3 3 2 2 3 3 5 6 8
1 3 4 6 5 4 5 5 3 2 2 2 2 2 2 3 3 3 3 2 3 3 3 4 4 3 3 3 3 2 3 3 2 2 3 3 3 2
4 5 6 6 4 4 4 3 2 1 1 0 1 2 3 2 2 1 1 2 3 4 4 2 2 4 2 3 3 3 3 3 3 2 2 3 3 3
3 3 4 4 4 3 3 3 2 2 2 1 1 2 3 3 3 2 1 1 1 2 4 4 2 1 4 3 2 3 3 3 3 2 1 3 4 4
3 3 3 2 2 2 2 2 2 2 2 1 1 1 2 2 2 2 1 1 1 2 2 2 2 3 4 3 4 3 3 3 3 2 1 1 4 4
2 1 2 2 2 1 1 1 1 2 1 1 1 2 2 2 2 2 2 2 2 2 2 2 1 1 1 3 6 4 4 3 2 2 2 3 4 5
1 1 1 2 1 1 1 1 1 2 2 2 2 2 2 2 2 3 2 2 2 2 3 2 1 2 4 4 4 5 5 5 3 3 3 2 3 5
2 2 2 1 1 1 1 1 1 1 2 2 2 2 2 2 2 3 3 4 3 2 3 3 4 4 2 0 2 4 5 5 7 5 3 1 2 3
2 2 2 1 0 0 0 1 1 1 2 2 2 2 2 2 3 3 3 3 3 2 3 3 4 2 1 0 2 4 5 5 4 6 8 7 4 4
2 1 1 0 1 1 1 1 2 1 1 1 1 2 2 2 3 3 3 3 3 3 3 3 4 3 2 1 2 2 3 4 3 4 4 7 12 14
Wind_Direction
63 63 62 48 56 74 108 140 143 144 161 194 172 198 189 194 211 193 208 223 204 194 189 185 165 125 74 55 45 36 31 27 23 18 14 11 10 10
62 63 55 45 52 59 80 85 111 136 144 192 202 196 182 198 214 214 223 226 217 201 197 200 201 194 169 80 39 30 27 22 17 16 14 13 11 9
59 64 55 51 54 49 59 69 76 102 122 119 155 152 145 188 267 259 226 218 214 210 205 205 205 208 203 199 248 348 5 8 8 8 8 8 5 3
63 64 55 58 49 42 53 61 70 86 125 131 76 52 61 198 252 323 322 204 216 219 213 210 207 213 218 222 230 258 309 338 345 350 353 355 355 355
66 67 60 65 57 48 52 56 60 73 93 118 98 46 28 36 43 16 14 358 260 209 212 219 220 221 225 230 237 249 269 294 314 328 337 339 341 344
61 63 62 66 67 61 59 56 69 72 75 91 86 54 35 21 61 43 5 343 310 256 220 217 221 229 233 236 241 246 254 269 284 301 315 320 324 328
55 54 57 64 65 64 72 67 75 78 78 82 76 54 31 30 19 350 18 339 323 335 353 284 232 240 245 244 246 247 249 253 263 277 291 301 308 316
63 49 50 47 46 49 58 70 91 101 102 95 87 88 43 0 5 19 50 35 325 310 73 292 196 247 251 242 242 243 247 249 250 255 265 281 296 308
69 60 55 43 38 38 41 45 48 74 120 134 133 170 187 210 130 22 36 196 243 259 112 305 315 271 261 252 247 244 247 250 250 252 257 268 285 301
73 82 79 43 31 48 54 46 34 28 57 133 173 208 210 200 181 182 205 290 297 294 125 157 305 290 297 295 266 251 250 253 253 254 256 263 275 291
55 66 78 60 46 62 66 52 32 8 19 26 253 249 247 230 190 119 46 55 2 317 344 144 272 311 309 298 290 270 260 258 257 258 260 260 265 280
43 39 50 58 50 61 71 64 35 344 345 348 350 344 322 293 211 179 173 153 177 285 272 156 241 8 322 297 291 290 283 273 267 263 260 256 256 259
50 15 355 23 37 42 63 85 305 312 331 346 349 352 347 332 300 216 198 179 185 239 237 169 203 193 198 288 303 284 268 270 281 274 269 262 254 233
57 335 323 351 8 11 12 337 350 19 25 24 20 356 338 321 300 279 241 224 219 230 241 182 194 192 182 258 284 295 292 270 251 267 277 281 266 248
350 334 345 355 1 359 351 354 12 43 38 31 0 309 287 285 297 314 318 299 285 262 245 203 192 193 177 203 244 268 290 290 258 259 272 261 253 239
360 350 0 5 9 352 349 1 17 37 110 292 288 298 313 331 340 337 329 342 350 328 324 305 206 188 203 221 211 247 246 263 278 266 268 278 269 236
357 12 15 7 2 358 356 351 359 15 19 349 350 346 345 351 342 341 348 2 356 313 316 326 335 220 210 195 219 249 257 268 258 258 278 294 282 258
51 26 1 355 350 345 352 350 353 352 338 344 359 354 344 340 335 337 349 347 317 295 289 293 330 360 359 311 217 222 253 255 266 257 216 262 288 282
56 2 339 330 328 333 354 354 334 325 338 2 6 352 345 341 344 339 339 337 324 306 291 280 266 120 13 303 294 222 207 252 263 276 241 217 249 272
17 303 294 292 294 310 333 340 338 353 6 6 5 359 0 353 346 338 331 323 314 312 315 313 269 204 199 223 261 282 231 212 226 248 262 257 266 280
310 295 278 274 275 293 314 338 5 16 14 14 5 0 356 357 342 328 325 328 331 318 309 292 275 270 217 166 310 301 292 244 211 207 213 240 302 319
271 274 277 261 246 253 49 62 47 28 19 25 6 354 349 351 341 332 328 324 311 294 285 285 305 338 56 265 274 280 296 311 290 240 221 200 191 218
237 237 243 196 155 135 120 106 97 55 29 23 2 347 347 344 334 331 324 320 315 315 316 319 331 343 324 266 266 277 294 305 322 331 303 256 232 241